Showing default

SNUGLITE-II, 52899

Orbit data source: Space-Track

SNUGLITE-II, 52899 is a payload satellite owned by SNU (KR) in SSO that was launched on Tue, 21 Jun 2022 UTC via an NURI launch vehicle from the Naro Space Center, South Korea (NSC). Payload-class satellites include a variety of spacecraft equipped with specific instruments for various scientific and technological missions. These include communications satellites like Starlink; space stations such as the ISS; scientific satellites like the Hubble; Earth observation satellites from companies like Planet Labs, Umbra, and HawkEye 360; GPS; miniature CubeSats for education and research; and military/defense satellites.

Loading next visibility...
Identifier
52899, 2022-065F
Orbit
SSO
Country
Flag of KRKR / SKOR
Related business
Manufacturer
SNU
Mission
Operational Amateur Technology
Bus & Motor
CUBESAT 3U, Unknown motor
Mass
4 kg wet, 4 kg dry
Launch date (UTC)
2022-06-21 (4 years ago)
Launch vehicle
NURI
Launch site
Naro Space Center, South Korea (NSC)
Object type
Payload
Rocket body
Debris
Shape & HBR
Box + 1 Rod, 0.2 m
Radar Cross Section
0.035 m², Medium (>0.1 m² and < 1m²)

Expand to show TLE details & history
Last TLE update: 2 days ago

TLE from 2 days ago
0 SNUGLITE-II
1 52899U 22065F   26171.37922855  .00000681  00000-0  13817-3 0  9994
2 52899  98.2207 316.2040 0007803  23.7444 336.4117 14.64352373211468
Epoch: 2026-06-20T09:06Z
TLE epoch observation values (Epoch: 2026-06-20T09:06:05.346Z)
Latitude
-0.00004°
Longitude
-88.91297°
Altitude
677.099 km
Speed
7.521 km/s
True Right ascension
21h 04m 48s
True Declination
0° 00' 00"
Sunlit
Object was in full shadow at epoch
Visualization orbit readout
Latitude
Unknown
Longitude
Unknown
Altitude
Unknown
Speed
Unknown
Apparent Right ascension
Unknown
Apparent Declination
Unknown
Sunlit
N/A
Visualization observer readout
Local Sidereal Time
21:35:16
Azimuth
Unknown
Elevation
Unknown
Doppler factor
Unknown
Orbital elements
Apogee altitude
681.736 km
Perigee altitude
670.727 km
Semi-major axis
7,054.369 km
Eccentricity
0.00078
Inclination
98.2207°
RAAN
316.204°
Arg. of periapsis
23.7444°
True anomaly
336.37589°
Mean anomaly
336.4117°
Eccentric anomaly
336.3938°
Mean motion
3.66316 °/min
Orbital period
98.28 mins
BSTAR
0.00013817
Loading maneuver chart data...
Computing Atmospheric mass density...
Loading historical data...
Loading historical data...
Loading historical data...
Loading historical data...
Loading historical data...
Loading historical data...
Loading historical data...

Documentation

Showing up to 5 results
|